sat.trackr.live / text

‹ back to catalog

STARLINK-36877

NORAD 67896 · 2026-035T

PAYLOAD ACTIVE UNKNOWN

§ Identity

Operator
Country
US
Launch date
2026-02-21
Launch site
AFWTR
Launch vehicle
Mass (kg)
RCS (m²)

Purposes: comms

External: N2YO · Heavens-Above · Gunter

§ Orbital elements

Epoch: 2026-09-19T01:16:51.917088Z

Period
93.91 min
Inclination
97.2839°
Eccentricity
0.0001818
Mean motion
15.33464391 rev/d
Perigee alt
464.2 km
Apogee alt
466.7 km
Semi-major
6,843.6 km
B*
7.3336e-4
RAAN
193.9611°
Arg perigee
87.3813°
Mean anomaly
272.7638°
Rev number
3,362

§ Raw data

STARLINK-368771 67896U 26035T   26262.05337867  .00023690  00000+0  73336-3 0  99932 67896  97.2839 193.9611 0001818  87.3813 272.7638 15.33464391 33622

JSON: /api/v1/satellites/67896 · /tle

For live sub-satellite position, see the globe view (requires WebGL).

§ Visibility from observer

Set your observer location to see the next 7 days of passes ≥ 10°. The values pass through the URL so the page stays shareable.

No JS? Fill the form by hand. The geolocation button needs JavaScript.